Photometre #117[Polarized_P] IAOCA-KRSU AOT

File : 20220924_117.hum

24/09/2022,01:23:38,TEMP=9.3,BA=5.64,STAT.A
24/09/2022,01:27:07,TEMP=9.4,BA=5.64,STAT.A
24/09/2022,01:31:12,TEMP=9.6,BA=5.64,STAT.A
24/09/2022,01:36:02,TEMP=9.8,BA=5.64,STAT.A
24/09/2022,01:41:53,TEMP=10.0,BA=5.64,STAT.A
24/09/2022,01:49:06,TEMP=10.2,BA=5.64,STAT.A
24/09/2022,01:58:19,TEMP=10.3,BA=5.64,STAT.B
24/09/2022,02:06:42,TEMP=11.3,BA=5.64,STAT.A
24/09/2022,02:08:58,TEMP=11.6,BA=5.64,STAT.A
24/09/2022,02:13:00,TEMP=12.0,BA=5.64,STAT.A
24/09/2022,02:19:15,TEMP=12.6,BA=5.64,STAT.A
24/09/2022,02:26:42,TEMP=13.1,BA=5.64,STAT.C
24/09/2022,02:42:30,TEMP=14.7,BA=5.64,STAT.A
24/09/2022,02:44:45,TEMP=15.1,BA=5.64,STAT.A
24/09/2022,02:56:37,TEMP=16.2,BA=5.64,STAT.A
24/09/2022,03:11:13,TEMP=16.6,BA=5.64,STAT.A
24/09/2022,03:29:47,TEMP=17.7,BA=5.64,STAT.B
24/09/2022,03:38:41,TEMP=17.5,BA=5.64,STAT.F
24/09/2022,03:54:18,TEMP=17.6,BA=5.64,STAT.D
24/09/2022,04:08:37,TEMP=18.2,BA=5.64,STAT.D
24/09/2022,04:23:35,TEMP=18.8,BA=5.64,STAT.D
24/09/2022,04:38:35,TEMP=19.5,BA=5.64,STAT.F
24/09/2022,05:06:16,TEMP=20.8,BA=5.64,STAT.D
24/09/2022,05:08:41,TEMP=20.9,BA=5.64,STAT.D
24/09/2022,05:23:36,TEMP=21.3,BA=5.60,STAT.D
24/09/2022,05:38:36,TEMP=21.5,BA=5.60,STAT.E
24/09/2022,05:53:36,TEMP=21.7,BA=5.60,STAT.D
24/09/2022,06:08:39,TEMP=21.4,BA=5.60,STAT.D
24/09/2022,06:23:37,TEMP=21.6,BA=5.60,STAT.D
24/09/2022,06:39:51,TEMP=21.5,BA=5.56,STAT.E
24/09/2022,07:00:15,TEMP=21.8,BA=5.56,STAT.D
24/09/2022,07:08:38,TEMP=22.0,BA=5.56,STAT.D
24/09/2022,07:23:37,TEMP=22.4,BA=5.56,STAT.D
24/09/2022,07:38:36,TEMP=21.8,BA=5.52,STAT.E
24/09/2022,07:53:38,TEMP=21.4,BA=5.52,STAT.D
24/09/2022,08:08:42,TEMP=21.8,BA=5.52,STAT.D
24/09/2022,08:23:45,TEMP=22.4,BA=5.52,STAT.D
24/09/2022,08:38:40,TEMP=22.6,BA=5.52,STAT.F
24/09/2022,08:54:32,TEMP=22.5,BA=5.52,STAT.D
24/09/2022,09:08:37,TEMP=22.2,BA=5.52,STAT.D
24/09/2022,09:23:37,TEMP=21.3,BA=5.52,STAT.D
24/09/2022,09:38:39,TEMP=21.1,BA=5.52,STAT.F
24/09/2022,09:53:57,TEMP=21.4,BA=5.52,STAT.B
24/09/2022,10:05:59,TEMP=21.2,BA=5.52,STAT.A
24/09/2022,10:20:41,TEMP=21.2,BA=5.52,STAT.A
24/09/2022,10:32:27,TEMP=22.1,BA=5.56,STAT.A
24/09/2022,10:42:22,TEMP=22.6,BA=5.56,STAT.A
24/09/2022,10:50:43,TEMP=22.7,BA=5.56,STAT.C
24/09/2022,11:05:58,TEMP=20.7,BA=5.56,STAT.A
24/09/2022,11:08:42,TEMP=20.2,BA=5.56,STAT.A
24/09/2022,11:10:36,TEMP=19.9,BA=4.36,STAT.A
24/09/2022,11:14:34,TEMP=19.2,BA=4.36,STAT.A
24/09/2022,11:18:55,TEMP=18.5,BA=4.36,STAT.B
24/09/2022,11:28:02,TEMP=17.4,BA=5.56,STAT.A
24/09/2022,11:35:15,TEMP=16.9,BA=5.52,STAT.A
24/09/2022,11:41:06,TEMP=16.5,BA=5.60,STAT.A
24/09/2022,11:54:57,TEMP=15.8,BA=5.56,STAT.A
24/09/2022,11:56:51,TEMP=15.8,BA=5.56,STAT.A
24/09/2022,11:58:44,TEMP=15.7,BA=5.56,STAT.A